This is the latest recevied weather packets stored in our database for station/object KF0ZH. If no packets are shown the sender has not sent any weather packets the latest 10 day(s).
| Time | Temp. | Humidity | Pressure | Rain* | Wind** | Luminosity | Snow |
|---|---|---|---|---|---|---|---|
| 1777249804 | 14.44° C | 77% | 1009.8 hPa | 0 mm | 2.24 m/s, 23° | - | - |
| 1777249504 | 14.44° C | 76% | 1009.9 hPa | 0 mm | 0 m/s | - | - |
| 1777249208 | 14.44° C | 76% | 1009.9 hPa | 0 mm | 2.24 m/s, 37° | - | - |
| 1777248904 | 15° C | 76% | 1009.9 hPa | 0 mm | 1.34 m/s, 39° | - | - |
| 1777248604 | 15° C | 76% | 1009.9 hPa | 0 mm | 1.34 m/s, 37° | - | - |
| 1777248307 | 15° C | 75% | 1009.9 hPa | 0 mm | 4.02 m/s, 11° | - | - |
| 1777248008 | 15° C | 75% | 1010 hPa | 0 mm | 0 m/s | - | - |
| 1777247704 | 15.56° C | 74% | 1010 hPa | 0 mm | 3.13 m/s, 22° | - | - |
| 1777247404 | 15.56° C | 74% | 1010.1 hPa | 0 mm | 0.89 m/s, 25° | - | - |
| 1777247108 | 15.56° C | 73% | 1010.2 hPa | 0 mm | 0.89 m/s, 15° | - | - |
| 1777246804 | 15.56° C | 73% | 1010.2 hPa | 0 mm | 2.68 m/s, 19° | - | - |
| 1777246504 | 15.56° C | 72% | 1010.3 hPa | 0 mm | 4.02 m/s, 21° | - | - |
| 1777246205 | 16.11° C | 72% | 1010.3 hPa | 0 mm | 2.24 m/s, 52° | - | - |
| 1777245904 | 16.11° C | 72% | 1010.4 hPa | 0 mm | 1.79 m/s, 92° | - | - |
| 1777245612 | 16.11° C | 73% | 1010.4 hPa | 0 mm | 1.79 m/s, 358° | - | - |
| 1777245304 | 16.11° C | 72% | 1010.5 hPa | 0 mm | 2.24 m/s, 26° | - | - |
| 1777245004 | 16.11° C | 72% | 1010.4 hPa | 0 mm | 4.47 m/s, 21° | - | - |
| 1777244704 | 16.11° C | 73% | 1010.5 hPa | 0 mm | 1.34 m/s, 21° | - | - |
| 1777244446 | 16.11° C | 73% | 1010.5 hPa | 0 mm | 1.34 m/s, 29° | - | - |
| 1777244405 | 16.11° C | 73% | 1010.5 hPa | 0 mm | 1.34 m/s, 29° | - | - |
| 1777244104 | 16.11° C | 72% | 1010.6 hPa | 0 mm | 1.79 m/s, 358° | - | - |
| 1777243804 | 16.11° C | 72% | 1010.7 hPa | 0 mm | 2.24 m/s, 28° | - | - |
| 1777243504 | 16.11° C | 73% | 1010.7 hPa | 0 mm | 0 m/s | - | - |
| 1777243205 | 16.11° C | 73% | 1010.7 hPa | 0 mm | 3.13 m/s, 47° | - | - |
| 1777242604 | 16.11° C | 73% | 1010.8 hPa | 0 mm | 3.58 m/s, 39° | - | - |
* Rain latest hour (hover to see other rain measurements)
** Current wind speed in m/s (hover to see current wind gust speed)